Charlottetown, Prince Edward Island

10:45 AM AST on February 09, 2016 (GMT -0400)
Charlottetown

Weather History for 71706 - December, 2013

Change the Weather History Date:

Thursday, December 26, 2013

  Actual Average Record
Temperature  
Mean Temperature 12 °F -  
Max Temperature 24 °F 27 °F - ()
Min Temperature 1 °F 11 °F - ()
Degree Days  
Heating Degree Days 52    
Moisture  
Dew Point 14 °F    
Average Humidity 90    
Maximum Humidity 100    
Minimum Humidity 75    
Precipitation  
Precipitation 0.16 in 0.14 in - ()
Sea Level Pressure  
Sea Level Pressure 30.39 in    
Wind  
Wind Speed 8 mph ()    
Max Wind Speed 15 mph    
Max Gust Speed -    
Visibility 10.7 miles    
Events Snow    
T = Trace of Precipitation, MM = Missing Value Source: Averaged Metar Reports

Daily Weather History Graph

Daily Weather History Graph

Search for Another Location

Airport or City:

Trip Planner

Search our weather history database for the weather conditions in past years. The results will help you decide how hot, cold, wet, or windy it might be!

Date:

Astronomy

Dec. 26, 2013 Rise Set
Actual Time 7:54 AM AST 4:31 PM AST
Civil Twilight 7:19 AM AST 5:06 PM AST
Nautical Twilight 6:41 AM AST 5:45 PM AST
Astronomical Twilight 6:04 AM AST 6:21 PM AST
Moon 1:02 AM AST (12/26) 12:19 PM AST (12/26)
Length of Visible Light 9h 46m
Length of Day
8h 37m
Last Quarter, 39% of the Moon is Illuminated
Dec 26
Last Quarter
Jan 1
New
Jan 7
First Quarter
Jan 16
Full
Jan 24
Last Quarter

Hourly Weather History & Observations

Time (AST) Temp. Windchill Dew Point Humidity Pressure Visibility Wind Dir Wind Speed Gust Speed Precip Events Conditions
12:00 AM 6.8 °F -4.8 °F 3.2 °F 85% 30.51 in 15.0 mi West 6.9 mph - N/A   Partly Cloudy
1:00 AM 8.6 °F -3.7 °F 5.0 °F 85% 30.50 in 15.0 mi WSW 8.1 mph - N/A   Clear
2:00 AM 7 °F - 3 °F 75% 30.52 in 15 mi West 6.9 mph - -   Partly Cloudy
2:00 AM 6.8 °F -4.8 °F 3.2 °F 85% 30.52 in 15.0 mi West 6.9 mph - N/A   Clear
3:00 AM 5.0 °F -5.6 °F 3.2 °F 92% 30.53 in 15.0 mi West 5.8 mph - N/A   Clear
4:00 AM 6.8 °F -7.8 °F 5.0 °F 92% 30.54 in 15.0 mi WSW 10.4 mph - N/A   Clear
5:00 AM 5.0 °F -8.1 °F 3.2 °F 92% 30.54 in 15.0 mi SW 8.1 mph - N/A   Clear
6:00 AM 5.0 °F -4.1 °F 3.2 °F 92% 30.55 in 15.0 mi WSW 4.6 mph - N/A   Mostly Cloudy
7:00 AM 6.8 °F -3.5 °F 3.2 °F 85% 30.54 in 15.0 mi SW 5.8 mph - N/A   Mostly Cloudy
8:00 AM 2 °F - -1 °F 83% 30.56 in 15 mi SW 2.3 mph - -   Scattered Clouds
8:00 AM 1.4 °F - -0.4 °F 92% 30.56 in 15.0 mi SSW 2.3 mph - N/A   Mostly Cloudy
9:00 AM 10.4 °F 0.8 °F 6.8 °F 85% 30.56 in 15.0 mi South 5.8 mph - N/A   Mostly Cloudy
10:00 AM 12.2 °F -0.2 °F 8.6 °F 85% 30.56 in 15.0 mi South 9.2 mph - N/A   Mostly Cloudy
10:38 AM 15.8 °F 2.7 °F 10.4 °F 79% 30.56 in 15.0 mi SSW 11.5 mph - N/A   Mostly Cloudy
11:00 AM 15.8 °F 2.1 °F 10.4 °F 79% 30.55 in 15.0 mi South 12.7 mph - N/A   Mostly Cloudy
12:00 PM 15.8 °F 4.2 °F 12.2 °F 86% 30.51 in 15.0 mi South 9.2 mph - N/A   Overcast
12:38 PM 17.6 °F 5.7 °F 14.0 °F 86% 30.49 in 15.0 mi South 10.4 mph - N/A   Overcast
1:00 PM 17.6 °F 4.3 °F 14.0 °F 86% 30.48 in 15.0 mi South 12.7 mph - N/A   Overcast
2:00 PM 19 °F - 15 °F 76% 30.47 in 15 mi South 13.8 mph - -   Partly Cloudy
2:00 PM 19.4 °F 6.0 °F 14.0 °F 80% 30.47 in 15.0 mi South 13.8 mph - N/A   Mostly Cloudy
3:00 PM 19.4 °F 5.5 °F 15.8 °F 86% 30.43 in 15.0 mi SSE 15.0 mph - N/A   Overcast
3:40 PM 19.4 °F 7.2 °F 17.6 °F 93% 30.40 in 15.0 mi SSE 11.5 mph - N/A Snow Light Snow
4:00 PM 19.4 °F 6.6 °F 17.6 °F 93% 30.40 in 15.0 mi SSE 12.7 mph - N/A Snow Light Snow
4:23 PM 19.4 °F 5.5 °F 17.6 °F 93% 30.38 in 15.0 mi SSE 15.0 mph - N/A   Overcast
5:00 PM 19.4 °F 6.6 °F 17.6 °F 93% 30.38 in 15.0 mi SSE 12.7 mph - N/A   Overcast
6:00 PM 21.2 °F 10.9 °F 17.6 °F 86% 30.33 in 15.0 mi SSE 9.2 mph - N/A Snow Light Snow Showers
7:00 PM 23.0 °F 10.6 °F 19.4 °F 86% 30.32 in 15.0 mi SSE 13.8 mph - N/A Snow Light Snow
8:00 PM 23 °F - 21 °F 90% 30.28 in 10 mi SSE 11.5 mph - - Snow Light Snow
8:00 PM 23.0 °F 11.7 °F 21.2 °F 93% 30.27 in 10.0 mi SSE 11.5 mph - N/A Snow Light Snow
8:27 PM 23.0 °F 11.7 °F 21.2 °F 93% 30.26 in 10.0 mi SSE 11.5 mph - N/A Snow Light Snow
9:00 PM 23.0 °F 12.4 °F 21.2 °F 93% 30.25 in 5.0 mi SSE 10.4 mph - N/A Snow Light Snow
9:26 PM 23.0 °F 12.4 °F 23.0 °F 100% 30.23 in 1.5 mi SE 10.4 mph - N/A Snow Light Snow
9:33 PM 23.0 °F 11.7 °F 23.0 °F 100% 30.22 in 0.8 mi SE 11.5 mph - N/A Snow Light Snow
9:52 PM 24.8 °F 16.1 °F 23.0 °F 93% 30.20 in 0.5 mi SE 8.1 mph - N/A Snow Snow
10:00 PM 24.8 °F 16.9 °F 23.0 °F 93% 30.20 in 0.8 mi SE 6.9 mph - N/A Snow Light Snow
10:13 PM 24.8 °F 15.3 °F 23.0 °F 93% 30.19 in 0.5 mi ESE 9.2 mph - N/A Snow Snow
10:15 PM 24.8 °F 16.1 °F 23.0 °F 93% 30.19 in 0.2 mi ESE 8.1 mph - N/A Snow Heavy Snow
10:21 PM 24.8 °F 16.1 °F 23.0 °F 93% 30.18 in 0.5 mi ESE 8.1 mph - N/A Snow Snow
10:36 PM 24.8 °F 16.1 °F 24.8 °F 100% 30.16 in 1.0 mi East 8.1 mph - N/A Snow Light Snow
11:00 PM 24.8 °F 16.9 °F 24.8 °F 100% 30.14 in 0.8 mi East 6.9 mph - N/A Snow Light Snow
11:12 PM 24.8 °F 16.1 °F 24.8 °F 100% 30.13 in 2.0 mi East 8.1 mph - N/A Snow Light Snow
11:24 PM 24.8 °F 16.1 °F 24.8 °F 100% 30.12 in 0.8 mi East 8.1 mph - N/A Snow Light Snow